Regional Weather Roundup
Issued by NWS

Home | Current Version | Previous Version | Graphics & Text | Print | Product List | Glossary On
Versions: 1 2 3 4 5 6 7 8 9 10 11 12 13 14 15 16 17 18 19 20 21 22 23 24 25 26 27 28 29 30 31 32 33 34 35 36 37 38 39 40 41 42 43 44 45 46 47 48 49 50
000
ASUS45 KSLC 181610
RWRUT

UTAH REGIONAL WEATHER ROUNDUP
NATIONAL WEATHER SERVICE SALT LAKE CITY UT
900 AM MST THU DEC 18 2014

UTZ001>011-023>025-181700-

NORTHERN UTAH

CITY           SKY/WX    TMP DP  RH WIND       PRES   REMARKS
BRIGHAM CITY   CLOUDY    32  29  88 W3        30.16R
HILL AFB       MOCLDY    30  27  87 SE9       30.13R WCI  22
LOGAN          CLOUDY    30  26  85 N3        30.14R
OGDEN          CLOUDY    33  28  81 S8        30.13R WCI  26
PROVO AIRPORT  CLOUDY   N/A N/A N/A CALM      30.15R
SALT LAKE CITY PTSUNNY   35  31  85 S3        30.14R
VERNAL         CLOUDY    25  23  92 S3        30.18R FOG
WENDOVER       CLEAR     25  21  86 N3        30.15R
HEBER CITY     CLOUDY    30  27  86 CALM      30.12R
WEST JORDAN    CLOUDY    34  34 100 SE3       30.14R

$$

UTZ012>022-026-027-181700-

SOUTHERN/CENTRAL UTAH

CITY           SKY/WX    TMP DP  RH WIND       PRES   REMARKS
BLANDING       CLOUDY    32  32  99 CALM      30.21R
BRYCE CANYON   CLOUDY    21  18  88 CALM      30.12R
CEDAR CITY     FOG       30  30 100 CALM      30.12R VSB 1
DELTA          CLOUDY    30  30 100 CALM      30.14R
MILFORD        CLOUDY    34  31  88 CALM      30.12R
MOAB/CYNLANDS  CLOUDY    35  34  96 CALM      30.14R
PRICE          FOG       26  24  92 CALM      30.12R VSB 1/4
ST GEORGE      CLOUDY    43  37  81 CALM      30.18R

$$

REGIONAL REPORTS     COLORADO/ARIZONA

CITY           SKY/WX    TMP DP  RH WIND       PRES   REMARKS
CRAIG, CO      FOG       27  24  89 SW3       30.14R VSB 3/4
GRAND JUNCTION CLOUDY    33  32  96 NW3       30.14R
RIFLE          LGT SNOW  32  31  96 CALM      30.13R FOG
MONTROSE       CLOUDY    32  32 100 CALM      30.15R FOG
CORTEZ         CLOUDY    33  32  96 CALM      30.14R
PAGE, AZ       CLOUDY    39  34  82 CALM      30.15R HAZE
GRAND CANYON   CLOUDY    30  29  96 CALM      30.14R
KINGMAN        CLOUDY    43  38  82 CALM      30.15R
FLAGSTAFF      SNOW      29  27  92 SW5       30.11R VSB 1/2 WCI  24

$$

REGIONAL REPORTS    NEVADA/IDAHO/WYOMING

CITY           SKY/WX    TMP DP  RH WIND       PRES   REMARKS
LAS VEGAS, NV  PTSUNNY   48  41  76 S8        30.13R
ELY            CLOUDY    24  21  88 S9        30.14R WCI  14
ELKO           CLOUDY    27  24  89 CALM      30.14R
POCATELLO, ID  MOCLDY    24  24 100 CALM      30.13S FOG
BURLEY         CLEAR     25  22  88 CALM      30.11R
EVANSTON, WY   CLOUDY    24  21  88 CALM      30.09R
ROCK SPRINGS   SUNNY     20  17  88 SW8       30.09R WCI  10
KEMMERER       CLOUDY    21  19  93 CALM      30.09R

$$



USA.gov is the U.S. government's official web portal to all federal, state and local government web resources and services.